Vertical_Velocity
2 2 1 1 1 1 0 -0 0 0 -0 -1 -1 -1 -1 0 -0 -1 -2 -3 -2 -2 -2 -1 -0 -1 -2 -2 -1 -0 -0 -0 -0 -0 0 0 0 -0 -0 -0 -0 -0 -0 -0 -0 0 0 1 0 0 0 1 1 1 0 0 1 1 1 0 -0 0 0 0 0 0 1 0 -1
1 1 1 2 1 0 -0 -0 -0 -0 -1 -1 -1 -1 -1 -1 -1 -2 -2 -2 -2 -2 -1 -0 -0 -1 -1 -2 -1 -0 0 -1 -1 -1 -0 -0 -0 -0 -0 -0 -0 -0 -0 -0 -0 0 1 1 1 1 0 0 0 0 -0 -0 1 1 1 0 1 1 1 0 0 1 1 0 -1
0 1 1 1 0 -0 -1 -1 -1 -1 -0 -0 -1 -1 -2 -2 -2 -1 -2 -2 -3 -2 -0 1 -0 -1 -2 -2 -1 -0 0 -0 -1 -1 -1 -1 -1 -1 -1 -0 -0 -0 -0 -0 0 1 1 1 1 1 1 0 1 1 0 -0 0 0 -0 -0 1 1 1 -0 -0 0 1 1 0
0 1 1 1 0 -1 -1 -2 -1 -1 -0 -0 -0 -1 -1 -2 -1 -1 -1 -3 -4 -3 -1 2 0 -1 -2 -1 -1 -0 -0 -0 -0 -1 -1 -2 -1 -1 -1 -0 0 0 -0 -0 0 1 1 1 1 1 1 1 1 1 1 1 1 0 0 0 1 1 -0 -1 -1 -0 -0 -0 -0
0 1 1 1 0 -1 -1 -1 -1 -1 -1 -0 0 -0 -0 -0 -0 -0 -1 -2 -4 -4 -1 2 1 -1 -2 -1 -1 -1 -1 -1 -1 -1 -1 -2 -2 -1 -1 0 1 0 -0 -0 0 0 1 1 1 1 1 0 1 1 1 1 2 1 1 1 1 1 1 -0 -1 -1 -1 -1 -0
0 0 1 1 1 0 -0 -0 -0 -1 -1 -1 0 0 0 0 1 1 -0 -2 -4 -3 -1 0 -0 -1 -1 -1 -1 -1 -1 -1 -1 -1 -2 -1 -1 -1 -0 0 0 0 -0 -1 -0 0 1 1 1 0 0 0 1 1 1 1 1 1 1 1 1 1 -0 -1 -2 -2 -1 1 2
1 1 1 1 1 1 1 0 -0 -0 -0 -0 -0 -0 -0 -0 1 1 -0 -1 -2 -2 -2 -1 -1 -1 -1 -1 -1 -1 -0 -1 -2 -2 -2 -1 -1 -1 -0 0 0 -0 -1 -1 -0 -0 0 1 1 0 -0 -0 0 0 1 1 1 2 1 1 1 2 2 2 1 0 1 3 3
2 2 2 2 2 2 2 1 0 0 -0 -0 -0 -1 -1 -0 -0 -0 -1 -1 -1 -2 -2 -2 -1 -1 -1 -2 -1 -1 -0 -0 -1 -2 -2 -1 -1 -1 -0 0 0 -0 -1 -2 -1 -0 0 -0 0 -0 -0 -1 -0 -0 0 0 1 1 1 1 2 2 2 1 1 1 1 1 1
3 3 2 2 2 2 1 0 0 0 -0 -1 -1 -1 -1 -1 -1 -1 -1 -1 -2 -2 -1 -1 -1 -1 -1 -1 -1 -1 -1 -0 -1 -2 -2 -2 -1 -1 -0 0 0 -1 -1 -2 -1 -0 0 -0 -0 -1 -0 -0 -0 -0 -0 -0 0 0 -0 0 1 1 1 1 1 0 -0 -1 -1
2 2 2 2 1 1 0 -0 -0 -0 -1 -1 -1 -1 -1 -1 -1 -2 -2 -2 -1 -1 -0 -1 -1 -2 -1 -1 -1 -1 -1 -1 -1 -1 -2 -2 -1 -1 0 1 0 -1 -1 -2 -1 -0 0 -0 -1 -1 -0 0 0 -0 -0 0 1 0 -0 -0 0 1 1 0 -0 -0 0 -0 -0
2 2 2 2 1 0 -0 -0 -1 -1 -1 -1 -1 -1 -1 -1 -1 -2 -2 -2 -1 -0 -1 -1 -1 -1 -1 -1 -1 -1 -1 -1 -1 -1 -1 -2 -2 -1 0 1 0 -0 -1 -2 -1 -0 0 -0 -1 -1 -0 0 1 1 1 1 1 0 0 0 1 1 1 0 -0 0 1 1 1
2 1 1 1 0 -0 -1 -1 -2 -2 -1 -0 -0 -1 -1 -1 -2 -2 -2 -1 -1 -1 -1 -1 -2 -2 -2 -2 -2 -1 -1 -1 -1 -1 -1 -2 -1 -1 0 1 0 -0 -1 -1 -0 0 0 -0 -1 -1 -0 0 1 1 1 1 0 0 -0 0 0 0 0 0 -0 -1 -1 0 0
1 1 0 -0 -0 -0 -1 -2 -3 -2 -1 0 0 -0 -1 -1 -1 -1 -1 -1 -1 -1 -1 -2 -2 -2 -2 -2 -2 -2 -2 -2 -1 -1 -1 -1 -1 -0 1 1 0 -0 -1 -1 0 1 1 -0 -0 -0 -0 0 0 1 1 1 1 0 0 0 0 0 0 1 -0 -0 -1 -0 -1
1 1 -0 -1 -1 -1 -1 -1 -2 -2 -1 0 -0 -1 -1 -1 -1 -1 -1 -1 -1 -1 -1 -2 -2 -2 -1 -1 -1 -2 -2 -2 -2 -2 -1 -0 0 1 1 1 0 -0 -1 -1 1 1 1 0 -0 -0 -0 -0 0 0 0 1 1 1 0 0 0 0 0 1 1 1 0 0 -0
0 0 0 0 -0 -0 -0 -1 -2 -2 -2 -1 -1 -1 -1 -1 -1 -1 -1 -1 -1 -1 -1 -2 -2 -2 -1 -1 -1 -1 -2 -2 -2 -2 -1 1 2 2 2 1 -0 -1 -1 -0 1 1 1 1 0 -0 -1 -0 -0 0 0 1 1 1 1 0 0 0 0 0 1 1 1 1 1
0 0 1 1 1 0 -0 -1 -2 -2 -2 -1 -1 -1 -2 -2 -1 -1 -1 -1 -1 -1 -1 -1 -1 -1 -1 -1 -1 -1 -2 -2 -2 -2 -0 2 3 3 2 1 -1 -1 -1 -0 1 2 2 1 1 -0 -1 -1 -0 0 0 0 0 1 1 1 1 0 0 0 1 1 1 1 1
1 1 1 2 1 0 -0 -1 -1 -1 -1 -1 -1 -1 -1 -2 -1 -1 -1 -1 -1 -1 -1 -2 -1 -1 -1 -1 -1 -1 -1 -2 -2 -1 1 3 3 2 1 -0 -1 -1 -1 -0 1 1 1 1 1 0 -0 -0 0 1 1 0 0 0 0 1 1 0 0 0 0 0 0 0 0
1 1 2 2 1 1 -0 -1 -1 -1 -1 -0 -0 -0 -1 -1 -1 -1 -1 -1 -1 -1 -2 -2 -2 -1 -1 -1 -1 -1 -1 -2 -3 -1 1 3 3 2 1 -0 -0 -0 -0 -0 0 0 1 1 1 1 0 0 1 1 1 1 0 -0 0 0 1 0 0 0 0 0 -0 -0 -0
1 2 2 2 1 0 -0 -1 -1 -1 -0 0 0 -0 -1 -1 -1 -1 -1 -1 -1 -1 -2 -2 -3 -2 -1 -0 0 -0 -1 -3 -3 -1 1 2 2 2 1 -0 -0 -0 -0 -0 -0 -0 0 1 1 1 1 1 1 1 1 0 -0 -0 -0 -0 0 0 0 0 0 0 -0 -0 -0
2 2 2 1 1 0 -0 -1 -1 -1 -1 -0 -0 -0 -1 -2 -2 -1 -1 -1 -1 -1 -2 -2 -3 -3 -2 -1 1 0 -1 -3 -3 -1 0 1 1 1 0 0 0 0 0 -1 -1 -0 0 1 1 1 1 1 1 1 0 0 -0 -0 -0 -0 -0 -0 0 0 0 0 0 -0 -0
1 1 1 1 1 0 -0 -1 -1 -1 -1 -0 -1 -1 -2 -2 -2 -2 -1 -1 -1 -1 -2 -3 -4 -4 -2 -1 -0 -0 -1 -2 -1 -0 0 1 1 0 0 1 1 1 0 -1 -1 -0 0 1 1 1 1 1 1 1 0 0 0 -0 -0 -0 -0 0 0 1 1 0 0 0 0
0 1 1 0 -0 -0 -1 -1 -1 -1 -1 -1 -1 -1 -2 -2 -2 -2 -1 -1 -1 -1 -2 -3 -3 -3 -2 -1 -1 -1 -1 -1 -0 0 0 0 0 0 0 1 1 1 0 -1 -1 -0 0 1 1 1 1 1 1 0 0 0 0 0 -0 -0 0 1 1 1 1 0 0 1 1
0 -0 -0 -1 -1 -1 -1 -0 -1 -1 -1 -1 -1 -1 -2 -2 -2 -2 -1 -1 -1 -1 -2 -2 -2 -2 -2 -2 -2 -2 -1 -0 0 0 0 0 1 1 1 1 1 1 1 -0 -0 -0 0 1 0 1 1 1 0 0 0 0 0 0 0 0 1 1 1 1 1 1 1 1 1
0 -0 -1 -1 -1 -1 -1 -1 -1 -1 -2 -2 -1 -1 -1 -1 -2 -1 -1 -0 -0 -1 -1 -1 -1 -1 -1 -2 -2 -2 -1 -0 0 0 0 1 1 1 1 1 1 1 1 1 -0 -0 0 1 0 0 0 0 0 0 0 1 0 0 0 0 0 1 1 1 1 1 1 0 0
0 -0 -1 -1 -1 -1 -1 -1 -1 -1 -2 -2 -1 -1 -0 -0 -1 -1 -1 -0 -0 -0 -1 -1 -0 -0 -0 -1 -1 -1 -1 -0 -0 0 1 1 1 1 1 1 1 1 1 1 -0 -0 -0 1 1 1 1 1 1 1 1 0 0 -0 -0 0 0 1 1 1 1 1 1 -0 -0
0 -0 -1 -1 -1 -1 -1 -1 -1 -1 -1 -2 -2 -1 -0 -0 -0 -1 -0 -0 -0 -0 -0 -0 -0 -0 -0 -0 -1 -1 -1 -1 -0 0 1 1 1 1 1 1 1 1 1 1 -0 -0 0 1 1 1 1 1 1 1 0 -0 -0 0 0 0 0 1 1 1 1 1 -0 -0 -0
-0 -0 -1 -1 -1 -1 -1 -1 -0 -0 -1 -1 -2 -2 -1 -1 -0 -0 -0 -0 -1 -1 -0 -0 0 0 -0 0 0 -0 -1 -1 -0 -0 0 1 1 1 1 1 1 2 1 0 -0 -0 0 1 1 2 2 2 1 1 0 -0 0 0 1 1 0 0 1 1 1 0 -0 -0 0
-0 -1 -1 -1 -1 -1 -1 -0 -0 -0 -0 -1 -2 -2 -1 -1 -0 -0 -0 -0 -1 -1 -1 -0 -0 -0 -0 0 0 -0 -0 -0 -0 -0 0 0 0 0 0 1 1 1 1 0 0 0 0 1 1 2 2 1 1 0 0 0 1 1 1 0 -0 0 1 1 1 0 -0 -0 0
-0 -1 -0 -0 -0 -1 -0 -0 0 0 -0 -1 -1 -1 -1 -1 -0 -0 -0 -0 -1 -1 -1 -1 -0 -0 -0 -0 -0 -0 -0 -0 -0 -0 0 1 0 0 1 1 1 1 1 1 0 0 0 0 1 1 1 1 1 1 1 1 1 0 -0 -0 -0 1 1 1 1 0 -0 -0 -0
-0 -0 -0 -0 -1 -0 -0 -0 0 0 -0 -1 -1 -1 -1 -1 -0 -0 -0 -0 -1 -1 -1 -0 -0 -0 -0 -0 -0 -0 -0 -1 -0 0 1 1 0 0 1 1 1 1 1 1 1 0 0 0 1 1 1 0 1 1 1 1 1 -0 -0 -0 0 1 1 1 1 1 0 0 0
0 -0 -0 -1 -1 -0 -0 -0 0 0 -0 -1 -1 -2 -1 -1 -0 -0 -0 -0 -1 -1 -1 -0 0 -0 -0 -0 -0 -0 -0 -1 -0 0 1 1 1 1 1 0 0 0 1 1 1 1 0 0 0 0 0 1 1 1 1 1 0 0 -0 -0 0 1 1 1 1 1 1 1 1
0 -0 -1 -1 -1 -1 -0 0 0 0 -0 -1 -2 -2 -1 -1 -0 -0 -0 -0 -1 -1 -1 -1 -0 -0 -0 -0 -0 -0 -0 -0 -0 -0 0 1 1 1 0 0 0 0 1 1 1 1 0 0 0 0 1 1 1 1 1 1 0 0 0 0 -0 0 0 1 1 2 1 1 1
0 -0 -1 -1 -1 -1 -0 0 0 0 -0 -1 -1 -1 -1 -1 -1 -1 -1 -1 -1 -1 -1 -1 -1 -1 -1 -1 -1 -1 -1 -0 -0 -0 0 1 1 1 0 0 0 0 1 1 1 0 0 0 0 1 1 1 1 1 1 0 0 0 0 -0 -0 -0 0 1 1 1 1 1 1
0 -0 -0 -1 -1 -1 -1 -0 -0 -0 -0 -1 -2 -1 -1 -0 -0 -1 -1 -1 -1 -0 -1 -1 -1 -1 -1 -1 -1 -1 -1 -1 -0 0 0 1 1 1 1 -0 -0 -0 0 1 0 0 0 0 1 1 1 1 1 1 0 0 0 -0 -0 -0 -0 0 0 0 1 1 1 1 1
0 -0 -1 -1 -1 -1 -1 -1 -0 -0 -0 -1 -2 -2 -1 0 0 -1 -1 -2 -1 -1 -1 -1 -1 -1 -1 -2 -1 -1 -1 -1 -1 -0 0 1 1 1 0 -0 -1 -0 0 1 0 0 0 1 1 1 1 1 1 0 0 0 -0 -0 -0 0 0 0 0 1 1 1 1 1 1
0 -0 -0 -1 -1 -1 -1 -1 -1 -0 -1 -1 -2 -2 -1 -0 -0 -0 -1 -2 -1 -1 -1 -1 -0 -1 -1 -2 -1 -1 -0 -0 -0 -0 0 0 1 0 -0 -1 -1 -0 0 1 0 0 0 1 1 1 1 1 1 0 0 -0 -0 0 0 0 0 0 1 1 1 1 1 1 1
-0 -0 -0 -0 -1 -1 -1 -0 -0 -1 -1 -1 -2 -1 -1 -0 -0 -1 -1 -1 -1 -1 -1 -1 -0 -1 -1 -1 -1 -1 -1 -0 -0 -0 -0 -0 0 -0 -1 -1 -1 -0 0 1 0 0 0 0 1 1 1 1 1 1 0 0 0 0 0 0 0 1 1 1 1 1 1 1 1
-0 -0 -0 -0 -0 -1 -1 -0 -0 -0 -1 -2 -2 -1 -1 -0 -0 -1 -1 -1 -1 -1 -1 -1 -1 -1 -1 -1 -0 -1 -1 -1 -0 -0 -0 -0 -0 -0 -0 -1 -0 -0 0 1 0 0 0 0 1 1 1 1 1 1 1 1 1 1 1 1 1 1 1 1 1 1 1 1 1
-0 0 1 0 -0 -1 -1 -0 -0 -1 -1 -2 -2 -2 -1 -1 -1 -1 -2 -1 -1 -1 -1 -1 -1 -1 -1 -0 -0 -0 -1 -1 -0 0 -0 -1 -1 -1 -0 -0 -0 0 0 1 1 1 1 1 1 1 1 1 1 1 1 1 1 1 1 1 1 1 1 1 1 1 1 1 1
-0 1 1 0 -0 -1 -1 -1 -1 -1 -1 -1 -2 -2 -2 -1 -1 -1 -2 -1 -1 -0 -0 -1 -2 -1 -1 0 0 -0 -1 -1 -0 -0 -0 -0 -1 -0 -0 0 0 1 1 1 1 1 1 1 1 1 0 0 0 0 0 1 1 1 1 1 1 2 2 1 1 1 1 1 1
1 1 1 0 -1 -1 -1 -1 -1 -2 -2 -1 -2 -2 -2 -1 -1 -1 -1 -1 -1 -0 -0 -1 -1 -1 -1 0 0 -0 -1 -1 -1 -0 0 -0 -0 -0 0 1 1 1 1 1 1 1 1 1 1 1 1 1 0 0 0 0 0 1 1 1 1 1 1 1 1 1 1 1 1
Height
3142 3142 3143 3143 3143 3143 3143 3143 3143 3143 3143 3143 3143 3143 3143 3143 3143 3142 3142 3142 3141 3141 3141 3141 3141 3140 3140 3139 3139 3138 3138 3137 3137 3136 3135 3135 3134 3134 3133 3133 3132 3132 3131 3131 3130 3130 3130 3129 3129 3128 3128 3127 3127 3126 3126 3125 3125 3125 3124 3124 3123 3123 3123 3123 3122 3122 3122 3122 3122
3140 3140 3141 3141 3140 3140 3140 3140 3141 3141 3141 3141 3140 3140 3140 3140 3140 3140 3139 3139 3139 3139 3139 3138 3138 3138 3137 3136 3136 3135 3135 3134 3134 3133 3133 3132 3132 3131 3131 3130 3130 3130 3129 3129 3128 3128 3127 3127 3126 3126 3125 3125 3124 3124 3123 3122 3122 3122 3121 3121 3121 3121 3120 3120 3120 3120 3120 3120 3120
3138 3139 3139 3139 3138 3138 3138 3138 3138 3139 3139 3138 3138 3138 3138 3138 3137 3137 3137 3136 3136 3136 3136 3136 3135 3135 3134 3134 3133 3133 3132 3132 3131 3130 3130 3130 3129 3128 3128 3127 3127 3127 3126 3126 3125 3125 3125 3124 3124 3123 3123 3122 3122 3121 3120 3120 3119 3119 3119 3118 3118 3118 3118 3118 3117 3117 3117 3118 3118
3136 3136 3136 3136 3136 3136 3136 3136 3136 3136 3136 3136 3136 3135 3135 3135 3135 3134 3134 3134 3133 3133 3133 3133 3132 3132 3131 3131 3130 3130 3130 3129 3128 3128 3127 3127 3126 3126 3125 3125 3125 3124 3124 3123 3123 3122 3122 3121 3121 3120 3120 3120 3119 3119 3118 3118 3117 3116 3116 3116 3116 3115 3115 3115 3115 3115 3115 3115 3115
3133 3134 3134 3134 3133 3133 3133 3133 3133 3133 3133 3133 3133 3133 3132 3132 3132 3132 3131 3131 3131 3130 3130 3130 3130 3129 3129 3128 3128 3127 3127 3126 3125 3125 3125 3124 3124 3123 3123 3122 3122 3121 3121 3120 3120 3120 3119 3119 3118 3118 3117 3117 3117 3116 3116 3115 3115 3115 3114 3114 3114 3114 3113 3113 3113 3113 3113 3113 3114
3131 3131 3131 3131 3130 3130 3130 3130 3130 3130 3130 3130 3130 3130 3130 3130 3130 3130 3129 3129 3128 3128 3128 3127 3127 3126 3126 3125 3125 3125 3124 3124 3123 3122 3122 3121 3121 3120 3120 3120 3120 3119 3119 3118 3118 3117 3117 3116 3116 3115 3115 3115 3114 3114 3113 3113 3113 3112 3112 3112 3112 3112 3112 3111 3111 3111 3111 3112 3113
3128 3128 3128 3128 3128 3128 3128 3128 3127 3127 3127 3127 3127 3127 3127 3127 3127 3127 3127 3126 3126 3125 3125 3125 3124 3124 3123 3123 3122 3122 3121 3121 3120 3120 3119 3119 3118 3118 3118 3117 3117 3117 3116 3115 3115 3115 3114 3114 3113 3113 3112 3112 3112 3111 3111 3110 3110 3110 3110 3110 3110 3111 3111 3110 3110 3110 3110 3110 3110
3125 3125 3125 3125 3125 3125 3125 3125 3125 3125 3125 3125 3125 3125 3125 3125 3125 3125 3124 3124 3123 3123 3122 3122 3121 3121 3120 3120 3119 3119 3119 3118 3117 3117 3116 3116 3116 3115 3115 3115 3115 3114 3114 3113 3113 3112 3112 3111 3111 3110 3110 3110 3109 3109 3108 3108 3108 3108 3108 3108 3108 3108 3108 3108 3107 3107 3108 3108 3108
3122 3122 3122 3122 3122 3122 3122 3122 3122 3122 3122 3122 3122 3122 3122 3122 3122 3122 3121 3121 3121 3120 3120 3119 3118 3118 3117 3117 3116 3116 3116 3115 3115 3114 3114 3114 3113 3113 3113 3113 3112 3112 3111 3111 3110 3110 3110 3109 3109 3108 3108 3107 3107 3106 3106 3106 3106 3106 3105 3105 3105 3105 3105 3105 3105 3105 3105 3105 3105
3119 3119 3119 3119 3120 3120 3120 3120 3120 3120 3120 3120 3120 3120 3120 3120 3119 3119 3119 3118 3118 3117 3117 3116 3116 3115 3115 3114 3114 3114 3113 3113 3112 3112 3111 3111 3111 3110 3110 3110 3110 3109 3109 3108 3108 3107 3107 3107 3106 3106 3105 3105 3105 3104 3104 3104 3104 3104 3103 3103 3103 3102 3102 3102 3103 3102 3102 3102 3102
3116 3117 3117 3117 3117 3117 3117 3117 3117 3117 3117 3117 3117 3117 3117 3117 3117 3116 3116 3115 3115 3115 3114 3114 3113 3113 3112 3112 3111 3111 3110 3110 3110 3109 3109 3108 3108 3108 3108 3107 3107 3107 3106 3105 3105 3105 3105 3104 3104 3103 3103 3103 3103 3102 3102 3102 3102 3101 3101 3100 3100 3100 3100 3100 3100 3100 3100 3100 3100
3114 3114 3114 3114 3115 3115 3115 3115 3115 3115 3115 3115 3115 3115 3115 3114 3114 3114 3113 3113 3113 3112 3112 3111 3110 3110 3110 3109 3109 3108 3108 3107 3107 3107 3106 3106 3105 3105 3105 3105 3104 3104 3103 3103 3103 3102 3102 3101 3101 3101 3100 3100 3100 3100 3100 3099 3099 3099 3098 3098 3098 3098 3098 3098 3098 3097 3097 3097 3097
3111 3111 3112 3112 3112 3112 3112 3112 3112 3112 3112 3112 3112 3112 3112 3112 3111 3111 3111 3110 3110 3110 3109 3109 3108 3108 3107 3107 3106 3106 3105 3105 3105 3104 3104 3103 3103 3103 3102 3102 3101 3101 3100 3100 3100 3100 3099 3099 3099 3098 3098 3098 3098 3097 3097 3097 3097 3096 3096 3096 3096 3096 3095 3095 3095 3095 3095 3095 3095
3109 3109 3109 3109 3109 3109 3109 3109 3110 3110 3110 3110 3110 3110 3110 3109 3109 3109 3108 3108 3107 3107 3107 3106 3105 3105 3105 3104 3104 3103 3103 3102 3102 3101 3101 3101 3100 3100 3100 3099 3099 3098 3098 3097 3097 3097 3097 3096 3096 3096 3095 3095 3095 3095 3095 3095 3094 3094 3094 3094 3094 3094 3093 3093 3093 3093 3093 3093 3093
3106 3106 3106 3107 3107 3107 3107 3107 3107 3107 3107 3107 3107 3107 3107 3107 3106 3106 3106 3105 3105 3105 3104 3104 3103 3103 3102 3102 3101 3100 3100 3100 3099 3099 3099 3098 3098 3098 3097 3097 3096 3095 3095 3095 3095 3095 3094 3094 3094 3093 3093 3093 3093 3092 3092 3092 3092 3092 3092 3091 3091 3091 3091 3091 3091 3091 3091 3091 3091
3103 3104 3104 3104 3104 3104 3105 3105 3105 3105 3105 3105 3105 3105 3105 3104 3104 3104 3103 3103 3102 3102 3102 3101 3100 3100 3100 3099 3099 3098 3097 3097 3096 3096 3096 3096 3096 3095 3095 3094 3093 3093 3092 3092 3092 3092 3092 3091 3091 3091 3090 3090 3090 3090 3090 3090 3090 3090 3090 3089 3089 3089 3089 3089 3089 3089 3089 3089 3089
3101 3101 3101 3102 3102 3102 3102 3102 3102 3102 3102 3102 3102 3102 3102 3102 3101 3101 3101 3100 3100 3100 3099 3099 3098 3098 3097 3096 3096 3095 3095 3094 3094 3094 3094 3093 3093 3092 3092 3091 3090 3090 3090 3090 3089 3089 3089 3089 3089 3088 3088 3088 3088 3088 3088 3087 3087 3087 3087 3087 3087 3087 3087 3086 3086 3086 3086 3086 3086
3098 3099 3099 3100 3100 3100 3100 3100 3100 3100 3100 3100 3100 3100 3100 3099 3099 3099 3098 3098 3097 3097 3096 3096 3095 3095 3095 3094 3094 3093 3092 3092 3091 3091 3091 3090 3090 3090 3089 3089 3088 3088 3087 3087 3087 3086 3086 3086 3086 3086 3086 3085 3085 3085 3085 3085 3085 3085 3085 3085 3085 3084 3084 3084 3084 3084 3084 3084 3084
3096 3097 3097 3097 3097 3098 3098 3098 3098 3098 3098 3098 3098 3098 3097 3097 3097 3096 3096 3095 3095 3095 3094 3093 3093 3092 3092 3092 3091 3090 3090 3089 3089 3089 3088 3088 3088 3087 3086 3086 3085 3085 3085 3084 3084 3084 3084 3084 3084 3084 3083 3083 3083 3083 3083 3083 3083 3082 3082 3082 3082 3082 3082 3082 3082 3082 3081 3081 3081
3094 3095 3095 3095 3095 3095 3095 3095 3095 3095 3096 3095 3095 3095 3095 3095 3094 3094 3094 3093 3093 3092 3091 3091 3090 3090 3090 3089 3089 3088 3087 3087 3086 3086 3086 3085 3085 3085 3084 3084 3083 3083 3082 3082 3082 3081 3081 3081 3081 3081 3081 3081 3081 3081 3081 3080 3080 3080 3080 3080 3080 3080 3080 3080 3080 3080 3079 3079 3079
3092 3092 3093 3093 3093 3093 3093 3094 3094 3093 3093 3093 3093 3093 3092 3092 3092 3091 3091 3090 3090 3090 3089 3088 3088 3087 3087 3087 3086 3086 3085 3085 3084 3084 3083 3083 3082 3082 3081 3081 3081 3080 3080 3080 3079 3079 3079 3079 3079 3079 3079 3079 3079 3079 3078 3078 3078 3078 3078 3077 3077 3077 3077 3077 3077 3077 3077 3077 3077
3090 3090 3090 3091 3091 3091 3091 3091 3091 3091 3091 3091 3091 3090 3090 3090 3089 3089 3089 3088 3088 3087 3087 3086 3085 3085 3085 3084 3084 3083 3083 3082 3082 3081 3080 3080 3080 3079 3079 3079 3078 3078 3077 3077 3077 3077 3076 3076 3076 3076 3076 3076 3076 3076 3076 3076 3076 3075 3075 3075 3075 3075 3075 3075 3075 3075 3075 3075 3075
3088 3088 3088 3089 3089 3089 3089 3089 3089 3089 3089 3089 3088 3088 3088 3087 3087 3086 3086 3085 3085 3085 3084 3084 3083 3083 3082 3082 3081 3080 3080 3080 3079 3079 3078 3078 3077 3077 3076 3076 3076 3075 3075 3075 3075 3074 3074 3074 3074 3074 3074 3074 3074 3074 3074 3074 3073 3073 3073 3073 3073 3073 3073 3073 3072 3072 3072 3072 3072
3085 3086 3086 3086 3086 3087 3087 3087 3087 3086 3086 3086 3086 3085 3085 3085 3084 3084 3084 3083 3083 3082 3082 3081 3081 3080 3080 3079 3079 3078 3078 3077 3077 3076 3076 3075 3075 3075 3074 3074 3073 3073 3073 3072 3072 3072 3072 3072 3071 3071 3071 3071 3071 3071 3071 3071 3070 3070 3070 3070 3070 3070 3070 3070 3070 3070 3070 3070 3070
3083 3084 3084 3084 3084 3085 3085 3085 3084 3084 3084 3083 3083 3083 3083 3082 3082 3081 3081 3081 3080 3080 3080 3079 3079 3078 3077 3077 3076 3075 3075 3075 3074 3074 3073 3073 3072 3072 3072 3071 3071 3070 3070 3070 3070 3069 3069 3069 3069 3069 3069 3069 3069 3068 3068 3068 3068 3068 3067 3067 3067 3067 3068 3068 3068 3068 3068 3068 3068
3081 3081 3082 3082 3082 3082 3082 3082 3082 3082 3081 3081 3081 3080 3080 3080 3080 3079 3079 3078 3078 3077 3077 3076 3076 3075 3075 3075 3074 3073 3073 3072 3071 3071 3071 3070 3070 3070 3069 3069 3069 3068 3068 3067 3067 3067 3067 3066 3066 3066 3066 3066 3066 3066 3065 3065 3065 3065 3065 3065 3065 3065 3065 3065 3065 3065 3065 3065 3065
3080 3080 3080 3080 3080 3080 3080 3080 3080 3079 3079 3079 3078 3078 3078 3077 3077 3076 3076 3076 3075 3075 3075 3074 3074 3073 3072 3072 3071 3071 3070 3070 3069 3069 3068 3068 3067 3067 3067 3066 3066 3066 3065 3065 3065 3064 3064 3064 3064 3064 3064 3064 3063 3063 3063 3063 3063 3062 3062 3062 3062 3062 3063 3063 3063 3063 3063 3063 3063
3077 3077 3077 3078 3078 3078 3078 3077 3077 3077 3077 3076 3076 3075 3075 3075 3075 3074 3074 3073 3073 3072 3072 3071 3071 3070 3070 3070 3069 3068 3068 3067 3067 3066 3066 3065 3065 3065 3064 3064 3064 3063 3063 3062 3062 3062 3062 3061 3061 3061 3061 3061 3060 3060 3060 3060 3060 3060 3060 3060 3060 3060 3060 3060 3060 3060 3060 3061 3061
3075 3075 3075 3075 3075 3075 3075 3075 3075 3075 3075 3074 3074 3073 3073 3072 3072 3072 3071 3071 3070 3070 3070 3069 3069 3068 3067 3067 3066 3066 3065 3065 3064 3064 3063 3063 3062 3062 3062 3061 3061 3061 3060 3060 3060 3059 3059 3059 3059 3059 3059 3058 3058 3058 3058 3058 3058 3058 3058 3057 3057 3058 3058 3058 3058 3058 3059 3059 3059
3073 3073 3073 3073 3073 3073 3073 3073 3073 3073 3072 3072 3071 3071 3070 3070 3070 3070 3069 3069 3068 3068 3067 3067 3066 3066 3065 3065 3064 3064 3063 3062 3062 3061 3061 3060 3060 3060 3060 3059 3059 3058 3058 3058 3057 3057 3057 3056 3056 3056 3056 3056 3055 3055 3055 3055 3055 3055 3055 3055 3055 3055 3056 3056 3056 3056 3056 3057 3057
3071 3071 3071 3071 3071 3071 3071 3071 3070 3070 3070 3070 3069 3069 3068 3068 3068 3067 3067 3066 3066 3065 3065 3065 3064 3063 3063 3062 3062 3061 3060 3060 3060 3059 3059 3058 3058 3057 3057 3057 3056 3056 3055 3055 3055 3055 3054 3054 3054 3054 3054 3053 3053 3053 3053 3053 3053 3053 3053 3053 3053 3054 3054 3054 3054 3055 3055 3055 3056
3069 3069 3069 3069 3069 3069 3069 3069 3068 3068 3068 3067 3067 3066 3066 3066 3065 3065 3065 3064 3064 3063 3063 3062 3061 3061 3060 3060 3060 3059 3058 3058 3057 3057 3056 3056 3055 3055 3055 3054 3054 3054 3053 3053 3052 3052 3052 3052 3051 3051 3051 3051 3051 3051 3051 3050 3051 3051 3051 3051 3052 3052 3052 3053 3053 3053 3054 3054 3055
3067 3067 3067 3067 3067 3067 3066 3066 3066 3066 3065 3065 3065 3064 3064 3064 3063 3063 3062 3062 3061 3061 3060 3060 3059 3059 3058 3058 3057 3056 3056 3055 3055 3055 3054 3054 3053 3053 3052 3052 3051 3051 3051 3050 3050 3050 3050 3049 3049 3049 3049 3049 3049 3049 3049 3049 3049 3049 3049 3050 3050 3051 3051 3051 3052 3052 3053 3053 3054
3065 3065 3065 3065 3065 3065 3065 3064 3064 3064 3063 3063 3062 3062 3062 3061 3061 3060 3060 3060 3059 3058 3058 3057 3057 3056 3056 3055 3055 3054 3054 3053 3053 3052 3052 3051 3051 3050 3050 3050 3049 3049 3048 3048 3048 3047 3047 3047 3047 3047 3047 3047 3046 3046 3047 3047 3047 3047 3048 3049 3049 3050 3050 3050 3051 3051 3052 3053 3053
3063 3063 3063 3063 3063 3062 3062 3062 3062 3061 3061 3060 3060 3060 3060 3059 3059 3058 3058 3057 3057 3056 3056 3055 3055 3055 3054 3053 3053 3052 3051 3051 3050 3050 3050 3049 3049 3048 3048 3047 3047 3046 3046 3045 3045 3045 3045 3045 3045 3045 3045 3045 3045 3045 3045 3045 3046 3046 3047 3047 3048 3048 3049 3050 3050 3051 3051 3052 3052
3061 3061 3061 3061 3060 3060 3060 3060 3060 3059 3059 3059 3058 3058 3057 3057 3057 3056 3055 3055 3055 3054 3053 3053 3053 3052 3052 3051 3050 3050 3050 3049 3048 3048 3047 3047 3046 3046 3045 3045 3045 3044 3044 3044 3044 3044 3044 3044 3043 3043 3043 3043 3043 3043 3044 3044 3045 3045 3046 3046 3047 3048 3048 3049 3050 3050 3050 3051 3052
3059 3059 3059 3059 3059 3058 3058 3058 3057 3057 3057 3056 3056 3055 3055 3055 3055 3054 3053 3053 3052 3051 3051 3051 3050 3050 3049 3049 3048 3048 3047 3047 3046 3046 3045 3045 3044 3044 3043 3043 3043 3042 3042 3042 3042 3042 3042 3042 3042 3042 3042 3042 3042 3042 3043 3043 3044 3045 3045 3045 3046 3047 3047 3048 3049 3049 3050 3050 3051
3057 3057 3057 3056 3056 3056 3056 3056 3055 3055 3055 3054 3054 3054 3053 3053 3052 3052 3051 3051 3050 3050 3049 3049 3048 3048 3047 3047 3046 3046 3045 3045 3044 3044 3043 3043 3042 3042 3041 3041 3041 3041 3040 3040 3040 3040 3040 3041 3041 3041 3041 3041 3041 3041 3042 3042 3043 3044 3044 3045 3045 3046 3047 3047 3048 3049 3049 3050 3050
3055 3055 3055 3054 3054 3054 3054 3054 3053 3053 3052 3052 3052 3051 3051 3050 3050 3050 3049 3049 3048 3047 3047 3046 3046 3045 3045 3045 3045 3044 3044 3043 3043 3042 3041 3041 3040 3040 3040 3040 3040 3039 3039 3039 3039 3039 3040 3040 3040 3040 3040 3040 3040 3041 3041 3042 3042 3043 3043 3044 3045 3045 3046 3047 3047 3048 3048 3049 3050
3053 3053 3052 3052 3052 3052 3051 3051 3051 3051 3050 3050 3050 3049 3049 3048 3048 3047 3047 3046 3046 3045 3045 3044 3044 3044 3043 3043 3042 3042 3041 3041 3041 3040 3040 3039 3039 3039 3039 3038 3038 3038 3038 3038 3038 3038 3039 3039 3039 3039 3039 3039 3040 3040 3040 3041 3041 3042 3043 3043 3044 3045 3045 3046 3046 3047 3048 3048 3049
3050 3050 3050 3050 3050 3050 3050 3049 3049 3049 3048 3048 3047 3047 3047 3046 3046 3045 3045 3044 3044 3044 3043 3042 3042 3042 3041 3041 3040 3040 3040 3039 3039 3039 3038 3038 3038 3037 3037 3037 3037 3037 3037 3037 3037 3037 3038 3038 3038 3038 3038 3039 3039 3040 3040 3040 3041 3041 3042 3043 3043 3044 3045 3045 3046 3046 3047 3047 3048